User: anonymous   Login
Location: ???????
(52.3000°N, 54.4667°E)
Time: 12:43:05
(UTC+00:00)
Language:

AQUARIUS - Orbit

View from above orbital plane
View from above orbital plane
View from above satellite
View from above satellite

Ground track
Ground track

The orbit data is extracted from the following two-line orbital elements,

1 37673U 11024A   20098.88860897 +.00000075 +00000-0 +19464-4 0  9997
2 37673 098.0101 107.4734 0001812 114.8659 310.2789 14.72978559474450
Epoch (UTC): 07 April 2020 21:19:35
Eccentricity: 0.0001812
inclination: 98.0101°
perigee height: 650 km
apogee height: 653 km
right ascension of ascending node: 107.4734°
argument of perigee: 114.8659°
revolutions per day: 14.72978559
mean anomaly at epoch: 310.2789°
orbit number at epoch: 47445

The dashed part of the orbit path shows where the satellite is in the earth's shadow,  

DLR